�������l�o���
Date,Time,MP-1(��Sv/h),MP-2(��Sv/h),MP-3(��Sv/h),MP-4(��Sv/h),MP-5(��Sv/h),MP-6(��Sv/h),MP-7(��Sv/h),MP-8(��Sv/h),����,����(m/s),���J
2019/03/04,00:00,0.768,1.119,0.779,1.454,1.038,0.440,0.781,0.739,��쐼,1.4,�L
2019/03/04,00:10,0.767,1.118,0.779,1.455,1.037,0.440,0.779,0.741,��쐼,0.8,�L
2019/03/04,00:20,0.767,1.117,0.779,1.454,1.039,0.441,0.780,0.739,��쐼,0.6,�L
2019/03/04,00:30,0.767,1.120,0.780,1.454,1.037,0.441,0.780,0.741,�쐼,0.9,��
2019/03/04,00:40,0.766,1.118,0.780,1.456,1.037,0.439,0.780,0.740,���쐼,0.6,��
2019/03/04,00:50,0.768,1.122,0.779,1.452,1.037,0.439,0.781,0.737,-,CALM,�L
2019/03/04,01:00,0.769,1.120,0.780,1.455,1.039,0.440,0.780,0.740,-,CALM,��
2019/03/04,01:10,0.766,1.117,0.782,1.454,1.039,0.440,0.780,0.738,�k��,0.9,��
2019/03/04,01:20,0.768,1.121,0.782,1.455,1.037,0.440,0.783,0.738,�k��,1.9,�L
2019/03/04,01:30,0.767,1.120,0.781,1.457,1.037,0.440,0.781,0.739,�k�k��,3.3,�L
2019/03/04,01:40,0.766,1.119,0.783,1.455,1.039,0.439,0.781,0.739,�k�k��,4.1,�L
2019/03/04,01:50,0.766,1.119,0.780,1.455,1.039,0.440,0.780,0.737,�k�k��,4.8,�L
2019/03/04,02:00,0.767,1.119,0.780,1.455,1.038,0.439,0.780,0.738,�k�k��,6.1,�L
2019/03/04,02:10,0.769,1.121,0.781,1.457,1.040,0.440,0.780,0.740,�k�k��,7.1,�L
2019/03/04,02:20,0.768,1.119,0.781,1.456,1.039,0.440,0.781,0.740,�k�k��,7.4,�L
2019/03/04,02:30,0.769,1.120,0.783,1.457,1.038,0.440,0.781,0.739,�k�k��,7.6,�L
2019/03/04,02:40,0.766,1.117,0.781,1.455,1.039,0.440,0.780,0.739,�k�k��,8.1,�L
2019/03/04,02:50,0.769,1.118,0.782,1.459,1.036,0.441,0.782,0.738,�k�k��,7.9,�L
2019/03/04,03:00,0.765,1.118,0.782,1.453,1.038,0.441,0.781,0.740,�k�k��,8.0,�L
2019/03/04,03:10,0.767,1.116,0.781,1.458,1.037,0.443,0.780,0.740,�k,7.1,�L
2019/03/04,03:20,0.767,1.114,0.781,1.456,1.033,0.442,0.780,0.739,�k�k��,7.8,�L
2019/03/04,03:30,0.764,1.113,0.782,1.456,1.037,0.441,0.778,0.740,�k�k��,7.3,�L
2019/03/04,03:40,0.765,1.111,0.780,1.453,1.033,0.442,0.779,0.737,�k�k��,7.3,�L
2019/03/04,03:50,0.765,1.108,0.780,1.451,1.032,0.442,0.779,0.738,�k�k��,8.3,�L
2019/03/04,04:00,0.764,1.107,0.780,1.450,1.030,0.442,0.780,0.737,�k�k��,9.2,�L
2019/03/04,04:10,0.764,1.105,0.778,1.449,1.030,0.442,0.777,0.738,�k�k��,9.0,�L
2019/03/04,04:20,0.764,1.107,0.778,1.448,1.028,0.442,0.779,0.736,�k�k��,9.2,�L
2019/03/04,04:30,0.763,1.104,0.776,1.448,1.030,0.443,0.779,0.739,�k�k��,8.0,�L
2019/03/04,04:40,0.764,1.106,0.776,1.443,1.030,0.441,0.779,0.738,�k�k��,8.7,�L
2019/03/04,04:50,0.764,1.105,0.777,1.448,1.031,0.440,0.780,0.739,�k�k��,8.5,�L
2019/03/04,05:00,0.762,1.106,0.776,1.447,1.028,0.443,0.779,0.737,�k�k��,8.1,�L
2019/03/04,05:10,0.762,1.105,0.777,1.446,1.028,0.442,0.779,0.737,�k�k��,9.3,�L
2019/03/04,05:20,0.761,1.105,0.777,1.443,1.027,0.441,0.780,0.738,�k�k��,8.7,�L
2019/03/04,05:30,0.762,1.103,0.776,1.445,1.027,0.441,0.779,0.737,�k�k��,9.2,�L
2019/03/04,05:40,0.763,1.099,0.776,1.442,1.025,0.442,0.780,0.736,�k�k��,8.7,�L
2019/03/04,05:50,0.760,1.098,0.773,1.442,1.025,0.440,0.777,0.735,�k�k��,10.5,�L
2019/03/04,06:00,0.760,1.096,0.772,1.440,1.023,0.440,0.777,0.735,�k�k��,10.0,�L
2019/03/04,06:10,0.757,1.095,0.772,1.435,1.019,0.440,0.776,0.735,�k�k��,9.3,�L
2019/03/04,06:20,0.757,1.092,0.772,1.431,1.017,0.441,0.776,0.736,�k�k��,9.3,�L
2019/03/04,06:30,0.755,1.088,0.768,1.428,1.016,0.439,0.776,0.735,�k�k��,9.8,�L
2019/03/04,06:40,0.755,1.084,0.767,1.426,1.015,0.438,0.776,0.735,�k�k��,9.3,�L
2019/03/04,06:50,0.754,1.085,0.765,1.424,1.015,0.438,0.777,0.735,�k�k��,8.1,�L
2019/03/04,07:00,0.753,1.085,0.766,1.421,1.013,0.438,0.774,0.732,�k�k��,8.9,�L
2019/03/04,07:10,0.752,1.084,0.765,1.417,1.009,0.438,0.773,0.734,�k�k��,9.7,�L
2019/03/04,07:20,0.752,1.080,0.762,1.416,1.008,0.438,0.773,0.734,�k�k��,8.8,�L
2019/03/04,07:30,0.750,1.080,0.764,1.414,1.009,0.438,0.773,0.733,�k�k��,9.1,�L
2019/03/04,07:40,0.749,1.079,0.761,1.409,1.009,0.437,0.772,0.732,�k�k��,8.7,�L
2019/03/04,07:50,0.750,1.078,0.761,1.410,1.009,0.438,0.772,0.730,�k�k��,9.7,�L
2019/03/04,08:00,0.751,1.077,0.762,1.410,1.010,0.438,0.774,0.732,�k�k��,9.4,�L
2019/03/04,08:10,0.751,1.079,0.764,1.409,1.008,0.438,0.772,0.735,�k�k��,9.6,�L
2019/03/04,08:20,0.750,1.078,0.764,1.410,1.006,0.439,0.772,0.733,�k�k��,10.5,�L
2019/03/04,08:30,0.752,1.080,0.764,1.410,0.997,0.437,0.773,0.733,�k�k��,9.5,�L
2019/03/04,08:40,0.750,1.081,0.761,1.412,0.995,0.437,0.775,0.731,�k�k��,9.0,�L
2019/03/04,08:50,0.750,1.080,0.763,1.409,0.992,0.437,0.772,0.732,�k�k��,9.5,�L
2019/03/04,09:00,0.751,1.081,0.762,1.411,0.990,0.436,0.773,0.732,�k�k��,9.3,�L
2019/03/04,09:10,0.749,1.081,0.762,1.411,0.971,0.437,0.772,0.734,�k�k��,10.4,�L
2019/03/04,09:20,0.748,1.077,0.761,1.405,0.979,0.435,0.773,0.732,�k�k��,9.5,�L
2019/03/04,09:30,0.746,1.074,0.760,1.402,0.981,0.436,0.770,0.732,�k�k��,8.7,�L
2019/03/04,09:40,0.747,1.074,0.758,1.398,-,0.435,0.769,0.733,�k�k��,9.7,�L
2019/03/04,09:50,0.746,1.074,0.760,1.401,-,0.437,0.768,0.731,�k�k��,9.2,�L
2019/03/04,10:00,0.745,1.070,0.759,1.400,-,0.438,0.769,0.732,�k�k��,9.0,�L
2019/03/04,10:10,0.745,1.070,0.758,1.397,0.950,0.437,0.772,0.730,�k�k��,10.5,�L
2019/03/04,10:20,0.745,1.070,0.759,1.395,0.959,0.437,0.769,0.731,�k�k��,10.5,�L
2019/03/04,10:30,0.743,1.071,0.755,1.395,0.974,0.436,0.770,0.730,�k�k��,11.1,�L
2019/03/04,10:40,0.742,1.068,0.755,1.390,0.976,0.437,0.769,0.728,�k�k��,11.7,�L
2019/03/04,10:50,0.745,1.067,0.758,1.388,0.981,0.437,0.769,0.731,�k�k��,10.5,�L
2019/03/04,11:00,0.743,1.070,0.758,1.389,0.979,0.436,0.770,0.728,�k�k��,10.2,�L
2019/03/04,11:10,0.746,1.071,0.758,1.390,0.975,0.436,0.769,0.730,�k�k��,9.2,�L
2019/03/04,11:20,0.747,1.069,0.757,1.392,0.980,0.436,0.768,0.731,�k�k��,10.5,�L
2019/03/04,11:30,0.746,1.067,0.756,1.395,0.967,0.437,0.768,0.729,�k�k��,9.8,�L
2019/03/04,11:40,0.745,1.064,0.757,1.392,0.973,0.437,0.767,0.728,�k�k��,11.3,�L
2019/03/04,11:50,0.745,1.066,0.756,1.392,0.983,0.437,0.769,0.730,�k�k��,9.9,�L
2019/03/04,12:00,0.745,1.064,0.757,1.387,0.982,0.437,0.768,0.730,�k�k��,10.2,�L
2019/03/04,12:10,0.745,1.068,0.757,1.393,0.983,0.435,0.766,0.729,�k�k��,9.8,�L
2019/03/04,12:20,0.745,1.065,0.756,1.389,0.983,0.436,0.767,0.728,�k�k��,10.2,�L
2019/03/04,12:30,0.744,1.063,0.754,1.392,0.982,0.435,0.767,0.729,�k�k��,11.0,�L
2019/03/04,12:40,0.742,1.062,0.756,1.389,0.980,0.435,0.766,0.729,�k�k��,10.3,�L
2019/03/04,12:50,0.744,1.059,0.754,1.388,0.979,0.433,0.767,0.728,�k�k��,10.7,�L
2019/03/04,13:00,0.742,1.063,0.752,1.386,0.976,0.433,0.765,0.730,�k�k��,9.8,�L
2019/03/04,13:10,0.743,1.058,0.752,1.386,0.976,0.435,0.767,0.728,�k�k��,10.3,�L
2019/03/04,13:20,0.743,1.059,0.751,1.387,0.973,0.436,0.766,0.730,�k�k��,11.3,�L
2019/03/04,13:30,0.742,1.062,0.751,1.387,0.969,0.435,0.767,0.729,�k�k��,10.8,�L
2019/03/04,13:40,0.742,1.063,0.751,1.385,0.974,0.433,0.765,0.728,�k�k��,10.5,�L
2019/03/04,13:50,0.743,1.062,0.753,1.386,0.970,0.435,0.765,0.727,�k�k��,11.1,�L
2019/03/04,14:00,0.741,1.060,0.752,1.384,0.970,0.434,0.764,0.726,�k�k��,9.8,�L
2019/03/04,14:10,0.741,1.059,0.750,1.382,0.984,0.434,0.763,0.726,�k�k��,10.3,�L
2019/03/04,14:20,0.740,1.057,0.751,1.382,0.981,0.433,0.765,0.727,�k�k��,11.3,�L
2019/03/04,14:30,0.738,1.057,0.753,1.382,0.980,0.434,0.764,0.726,�k�k��,11.6,�L
2019/03/04,14:40,0.737,1.054,0.749,1.381,0.973,0.434,0.764,0.727,�k�k��,9.3,�L
2019/03/04,14:50,0.737,1.055,0.748,1.382,0.964,0.433,0.762,0.726,�k�k��,9.4,�L
2019/03/04,15:00,0.735,1.056,0.748,1.380,0.966,0.433,0.764,0.727,�k�k��,10.3,�L
2019/03/04,15:10,0.736,1.055,0.748,1.382,0.965,0.433,0.764,0.724,�k�k��,10.5,�L
2019/03/04,15:20,0.739,1.058,0.748,1.384,0.959,0.432,0.765,0.725,�k�k��,10.0,�L
2019/03/04,15:30,0.740,1.059,0.750,1.384,0.962,0.432,0.763,0.726,�k�k��,10.2,�L
2019/03/04,15:40,0.739,1.061,0.752,1.386,0.969,0.432,0.765,0.728,�k�k��,10.2,�L
2019/03/04,15:50,0.740,1.058,0.752,1.386,-,0.433,0.764,0.726,�k�k��,9.4,�L
2019/03/04,16:00,0.737,1.059,0.749,1.385,-,0.431,0.763,0.727,�k�k��,10.8,�L
2019/03/04,16:10,0.737,1.059,0.750,1.385,-,0.431,0.764,0.724,�k�k��,10.0,�L
2019/03/04,16:20,0.737,1.061,0.749,1.383,0.958,0.432,0.765,0.726,�k�k��,11.6,�L
2019/03/04,16:30,0.736,1.058,0.749,1.384,0.961,0.431,0.765,0.726,�k�k��,9.6,�L
2019/03/04,16:40,0.737,1.061,0.750,1.381,0.963,0.432,0.764,0.725,�k�k��,10.2,�L
2019/03/04,16:50,0.737,1.059,0.748,1.382,0.971,0.431,0.763,0.725,�k�k��,11.6,�L
2019/03/04,17:00,0.736,1.061,0.749,1.382,0.978,0.431,0.762,0.724,�k�k��,9.9,�L
2019/03/04,17:10,0.738,1.060,0.748,1.382,0.978,0.432,0.763,0.725,�k�k��,10.4,�L
2019/03/04,17:20,0.736,1.061,0.748,1.382,0.979,0.430,0.764,0.726,�k�k��,10.2,�L
2019/03/04,17:30,0.737,1.060,0.748,1.383,0.981,0.432,0.763,0.723,�k�k��,10.5,�L
2019/03/04,17:40,0.737,1.055,0.747,1.378,0.977,0.432,0.761,0.726,�k�k��,10.7,�L
2019/03/04,17:50,0.736,1.055,0.748,1.378,0.976,0.432,0.763,0.723,�k�k��,9.7,�L
2019/03/04,18:00,0.734,1.060,0.747,1.378,0.976,0.431,0.763,0.723,�k�k��,10.3,�L
2019/03/04,18:10,0.735,1.061,0.748,1.378,0.979,0.432,0.762,0.723,�k�k��,9.3,�L
2019/03/04,18:20,0.736,1.060,0.748,1.382,0.980,0.431,0.762,0.724,�k,8.8,�L
2019/03/04,18:30,0.739,1.061,0.749,1.383,0.980,0.431,0.761,0.725,�k,9.4,�L
2019/03/04,18:40,0.740,1.066,0.750,1.383,0.980,0.430,0.762,0.723,�k,9.3,�L
2019/03/04,18:50,0.740,1.064,0.751,1.384,0.985,0.431,0.765,0.725,�k,8.1,�L
2019/03/04,19:00,0.740,1.065,0.750,1.385,0.987,0.433,0.766,0.725,�k�k��,8.8,�L
2019/03/04,19:10,0.740,1.067,0.750,1.388,0.986,0.430,0.765,0.726,�k�k��,9.4,��
2019/03/04,19:20,0.741,1.068,0.751,1.387,0.986,0.430,0.766,0.727,�k�k��,8.4,��
2019/03/04,19:30,0.741,1.066,0.750,1.387,0.985,0.431,0.765,0.725,�k�k��,8.7,��
2019/03/04,19:40,0.740,1.071,0.752,1.388,0.988,0.430,0.766,0.725,�k,8.3,��
2019/03/04,19:50,0.741,1.069,0.752,1.390,0.987,0.431,0.765,0.726,�k,7.3,��
2019/03/04,20:00,0.741,1.069,0.751,1.390,0.988,0.430,0.768,0.727,�k,8.3,��
2019/03/04,20:10,0.740,1.071,0.752,1.392,0.988,0.429,0.766,0.727,�k,8.8,��
2019/03/04,20:20,0.742,1.072,0.752,1.391,0.989,0.430,0.768,0.727,�k�k��,9.9,��
2019/03/04,20:30,0.743,1.071,0.753,1.391,0.991,0.429,0.767,0.726,�k,9.1,��
2019/03/04,20:40,0.742,1.072,0.752,1.393,0.991,0.430,0.767,0.726,�k�k��,8.9,��
2019/03/04,20:50,0.744,1.070,0.754,1.392,0.993,0.430,0.768,0.728,�k�k��,9.2,��
2019/03/04,21:00,0.744,1.072,0.752,1.395,0.990,0.430,0.767,0.726,�k�k��,8.7,��
2019/03/04,21:10,0.743,1.075,0.753,1.392,0.991,0.430,0.766,0.728,�k�k��,7.2,��
2019/03/04,21:20,0.744,1.071,0.754,1.396,0.991,0.430,0.767,0.727,�k�k��,6.7,��
2019/03/04,21:30,0.745,1.073,0.754,1.396,0.992,0.431,0.766,0.727,�k�k��,7.6,��
2019/03/04,21:40,0.745,1.075,0.754,1.394,0.992,0.430,0.767,0.729,�k�k��,5.1,��
2019/03/04,21:50,0.744,1.075,0.754,1.397,0.992,0.430,0.768,0.726,�k�k��,6.2,��
2019/03/04,22:00,0.745,1.075,0.754,1.396,0.991,0.433,0.766,0.727,�k�k��,6.2,��
2019/03/04,22:10,0.745,1.076,0.755,1.396,0.994,0.431,0.768,0.727,�k�k��,6.4,��
2019/03/04,22:20,0.745,1.077,0.754,1.394,0.993,0.432,0.766,0.729,�k�k��,5.7,��
2019/03/04,22:30,0.745,1.078,0.755,1.396,0.994,0.431,0.767,0.729,�k�k��,5.9,��
2019/03/04,22:40,0.744,1.076,0.755,1.400,0.992,0.432,0.767,0.728,�k�k��,6.4,��
2019/03/04,22:50,0.745,1.078,0.755,1.396,0.996,0.432,0.769,0.729,�k�k��,6.7,��
2019/03/04,23:00,0.748,1.077,0.757,1.394,0.995,0.430,0.768,0.728,�k,6.3,��
2019/03/04,23:10,0.746,1.076,0.754,1.398,0.994,0.431,0.768,0.728,�k�k��,6.1,��
2019/03/04,23:20,0.746,1.076,0.755,1.396,0.995,0.432,0.769,0.727,�k�k��,7.5,��
2019/03/04,23:30,0.748,1.077,0.757,1.397,0.996,0.432,0.767,0.729,�k�k��,5.9,��
2019/03/04,23:40,0.747,1.080,0.756,1.399,0.996,0.432,0.769,0.727,�k�k��,7.6,��
2019/03/04,23:50,0.747,1.081,0.755,1.399,0.997,0.433,0.769,0.728,�k�k��,6.1,��
